Powrót do katalogu

FENGYUN 1C DEB

AktywnySSO
NORAD 31195·DEBRIS·🇨🇳 China

Wystrzelony May 10, 1999 z Taiyuan Satellite Launch Center

Loading…

Następne Przeloty (najbliższe 24 godziny)

TLE

Starzejące sięSource: Space-Track

Epoka: Sep 9, 2026, 07:33 UTC

1 31195U 99025BJZ 26252.31513376  .00000235  00000-0  14128-3 0  9999
2 31195  98.7505 282.9208 0172434 137.7156 223.7458 14.08103585999066

Śledź FENGYUN 1C DEB w czasie rzeczywistym z AllMySat

Download on the App Store